Location: Dumpton Point
(51.3500°N, 1.4433°E)
Time: 13:39:05
(UTC+00:00)

SPOT 1/Viking Rocket - Pass Details

Date: 09 April 2020
Orbit: 776 x 795 km, 98.5° (Epoch: 25 May)

Event Time Altitude Azimuth Distance (km) Brightness Sun altitude
Exits shadow 21:30:44 38° 197° (SSW) 1,208 4.2 -23.0°
Maximum altitude 21:32:35 59° 258° (WSW) 914 3.9 -23.2°
Drops below altitude 10° 21:37:47 10° 339° (NNW) 2,378 7.0 -23.7°
Sets 21:40:10 0° 343° (NNW) 3,312 8.0 -23.9°
